Location: Linz
(48.3300°N, 14.3000°E)
Time: 16:29:50
(UTC+01:00)

N. Korean satellite - Pass Details

Date: 13 November 2017
Orbit: 460 x 514 km, 97.2° (Epoch: 20 November)

Event Time Altitude Azimuth Distance (km) Brightness Sun altitude
Rises 17:20:22 0° 145° (SE) 2,481 10.0 -9.1°
Reaches altitude 10° 17:22:29 10° 136° (SE) 1,615 8.9 -9.5°
Maximum altitude 17:25:39 34° 70° (ENE) 798 7.1 -10.0°
Drops below altitude 10° 17:28:51 10° 5° (N) 1,646 9.1 -10.5°
Sets 17:31:03 0° 356° (N) 2,538 10.1 -10.8°
